Find Starlink 1191

NORAD ID: 45222 Int'l Des: 2020-012 Owner: SPXS Country: US Constellation: starlink operational
LEOCIRCULAR

リアルタイム位置

3D地球を読み込み中...

Starlink 1191について

説明を読み込み中...

次回通過

Passes for default location (London). Set your location on the main map for personalized predictions.

高度履歴

Loading altitude history...

軌道要素

1 45222U 20012AW 26124.93489521 .00061223 00000-0 17230-2 0 9995
2 45222 53.1549 96.4667 0004943 70.2379 289.9157 15.35909187344145
Epoch: May 4, 2026 • Age: 32 hours

現在のステータス

高度 457.7 km
速度 7.64 km/s
衛星直下点 15.54°N, 61.34°W
打ち上げ日 Feb 17, 2020
運用期間 6.2 years
タイプ internet

技術仕様

分類 Payload
質量 260.00 kg
乾燥質量 248.00 kg
総質量 260.00 kg
長さ 0.20 m
直径 2.80 m
スパン 9.00 m
形状 Box + pan
製造者 SPXS
バスタイプ Starlink
フェーズステータス In Orbit
所有者/国 SPXS/US

Most Searched